STARLINK-11282, 60992

Orbit data source: Space-Track

STARLINK-11282, 60992 is a payload satellite owned by SpaceX/Seattle (US) in LEO that was launched on Thu, 05 Sep 2024 UTC via an FALCON 9 launch vehicle from the Air Force Eastern Test Range (AFETR). Payload-class satellites include a variety of spacecraft equipped with specific instruments for various scientific and technological missions. These include communications satellites like Starlink; space stations such as the ISS; scientific satellites like the Hubble; Earth observation satellites from companies like Planet Labs, Umbra, and HawkEye 360; GPS; miniature CubeSats for education and research; and military/defense satellites.

Loading next visibility...
Identifier
60992, 2024-158C
Orbit
LEO
Country
Flag of USUS
Related business
Manufacturer
SpaceX/Seattle
Mission
Operational Commercial Communications
Bus & Motor
STARLINK V2MD, Unknown motor
Mass
960 kg wet, ~910 kg dry
Launch date (UTC)
2024-09-05 (1 year ago)
Launch vehicle
FALCON 9
Launch site
Air Force Eastern Test Range (AFETR)
Object type
Payload
Rocket body
Debris
Shape & HBR
Box + 2 Pan, 18.1 m
Radar Cross Section
36.964 m², Large (>1 m²)

Expand to show TLE details & history
Last TLE update: 19 hours ago

TLE from 19 hours ago
0 STARLINK-11282
1 60992U 24158C   26033.40701811  .00002434  00000-0  24957-4 0  9996
2 60992  53.1584  95.1592 0001296 128.3220 231.7915 15.69698324 82057
Epoch: 2026-02-02T09:46Z
TLE epoch observation values (Epoch: 2026-02-02T09:46:06.364Z)
Latitude
Longitude
176.02993°
Altitude
361.215 km
Speed
7.693 km/s
True Right ascension
06h 20m 38s
True Declination
0° 00' 00"
Sunlit
Object was in full shadow at epoch
Visualization orbit readout
Latitude
Unknown
Longitude
Unknown
Altitude
Unknown
Speed
Unknown
Apparent Right ascension
Unknown
Apparent Declination
Unknown
Sunlit
N/A
Visualization observer readout
Local Sidereal Time
06:31:14
Azimuth
Unknown
Elevation
Unknown
Doppler factor
Unknown
Orbital elements
Apogee altitude
360.894 km
Perigee altitude
359.148 km
Semi-major axis
6,738.158 km
Eccentricity
0.00013
Inclination
53.1584°
RAAN
95.1592°
Arg. of periapsis
128.322°
True anomaly
231.77983°
Mean anomaly
231.7915°
Eccentric anomaly
231.78567°
Mean motion
3.92402 °/min
Orbital period
91.74 mins
BSTAR
0.000024957
Loading maneuver chart data...
Computing Atmospheric mass density...
Loading historical data...
Loading historical data...
Loading historical data...
Loading historical data...
Loading historical data...
Loading historical data...
Loading historical data...

Documentation

Showing up to 5 results
|